Voltar ao catálogo

NOAA 16 DEB

AtivoSSO
NORAD 41265·DEBRIS·🇺🇸 United States

Lançado Sep 21, 2000 de Vandenberg Space Force Base

Loading…

Próximas Passagens (próximas 24 horas)

TLE

AtualizadoSource: Space-Track

Época: Sep 14, 2026, 06:21 UTC

1 41265U 00055FR  26257.26487753  .00002515  00000-0  10703-2 0  9998
2 41265  98.6390 260.5545 0026633 277.6175  82.1980 14.25893676552682

Acompanhe NOAA 16 DEB em tempo real com AllMySat

Download on the App Store